CW7443 Weather Reports


time (UTC)temp
C
wind
direction
speed
KPH
gust
KPH
rain 1hr
cm
rain 24hr
cm
rain mn
cm
humidity
%
barometer
mb
20260506150826 10 24 0.0 4.8 0.00 0.05 0.00 89 1011.4
20260506150319 10 24 0.0 6.4 0.00 0.05 0.00 89 1011.4
20260506145825 9 24 0.0 8.0 0.00 0.05 0.00 89 1011.0
20260506145329 9 24 1.6 8.0 0.00 0.05 0.00 88 1011.0
20260506144818 9 28 0.0 0.0 0.00 0.05 0.00 92 1011.0
20260506144320 9 28 0.0 0.0 0.00 0.05 0.00 93 1010.7
20260506143825 9 28 0.0 0.0 0.00 0.05 0.00 93 1010.7
20260506143315 8 29 0.0 6.4 0.00 0.05 0.00 93 1010.7
20260506142837 8 29 0.0 6.4 0.00 0.05 0.00 95 1010.7
20260506142343 8 31 1.6 9.7 0.00 0.05 0.00 96 1010.7
20260506141828 8 9 1.6 9.7 0.00 0.05 0.00 96 1010.7
20260506141333 8 143 0.0 8.0 0.00 0.05 0.00 98 1010.3
20260506140842 8 17 0.0 4.8 0.00 0.05 0.00 99 1010.3
20260506140326 8 38 0.0 8.0 0.00 0.05 0.00 99 1010.3
20260506135828 8 38 0.0 11.3 0.00 0.05 0.00 100 1010.2
20260506135353 8 49 3.2 11.3 0.00 0.05 0.00 100 1010.2
20260506134841 8 25 1.6 9.7 0.00 0.05 0.00 100 1010.2
20260506134322 8 22 1.6 9.7 0.00 0.05 0.00 100 1010.2
20260506133827 8 20 0.0 3.2 0.00 0.05 0.00 100 1010.2
20260506133355 8 19 0.0 3.2 0.00 0.05 0.00 100 1010.2
20260506132818 7 20 0.0 3.2 0.00 0.05 0.00 100 1010.2
20260506132323 7 23 0.0 0.0 0.00 0.05 0.00 100 1010.2
20260506131848 7 23 0.0 0.0 0.00 0.05 0.00 100 1010.2
20260506131351 7 22 0.0 0.0 0.00 0.05 0.00 100 1010.2
20260506130835 7 22 0.0 0.0 0.00 0.05 0.00 100 1010.2
20260506130321 7 22 0.0 0.0 0.00 0.05 0.00 100 1010.2
20260506125827 7 54 0.0 4.8 0.00 0.05 0.00 100 1009.2
20260506125317 7 53 0.0 4.8 0.00 0.05 0.00 100 1009.2
20260506124846 7 78 0.0 0.0 0.00 0.05 0.00 100 1009.2
20260506124330 7 78 0.0 4.8 0.00 0.05 0.00 100 1009.3
20260506123840 7 78 0.0 4.8 0.00 0.05 0.00 100 1009.3
20260506123325 7 78 0.0 4.8 0.00 0.05 0.00 100 1009.3
20260506122826 7 11 0.0 4.8 0.00 0.05 0.00 100 1009.2
20260506122334 7 11 0.0 4.8 0.00 0.05 0.00 100 1009.2
20260506121818 7 39 0.0 0.0 0.00 0.05 0.00 100 1009.2
20260506121320 7 39 0.0 0.0 0.00 0.05 0.00 100 1009.2
20260506120828 7 39 0.0 0.0 0.00 0.05 0.00 100 1009.2
20260506120355 7 39 0.0 0.0 0.00 0.05 0.00 100 1009.2
20260506115837 7 39 0.0 0.0 0.00 0.05 0.00 100 1008.9
20260506115325 7 39 0.0 0.0 0.00 0.05 0.00 100 1008.9
20260506114831 7 39 0.0 0.0 0.00 0.05 0.00 100 1008.9
20260506114334 7 39 0.0 0.0 0.00 0.05 0.00 100 1008.6
20260506113859 7 39 0.0 0.0 0.00 0.05 0.00 100 1008.6
20260506113323 7 39 0.0 0.0 0.00 0.05 0.00 100 1008.6
20260506112828 7 39 0.0 0.0 0.00 0.05 0.00 100 1008.1
20260506112336 7 39 0.0 0.0 0.00 0.05 0.00 100 1008.1
20260506111819 7 39 0.0 0.0 0.00 0.05 0.00 100 1008.1
20260506111319 7 39 0.0 0.0 0.00 0.05 0.00 100 1008.3
20260506110849 7 39 0.0 0.0 0.00 0.05 0.00 100 1008.3
20260506110332 7 39 0.0 1.6 0.00 0.05 0.00 100 1008.3
20260506105834 7 39 0.0 1.6 0.00 0.05 0.00 100 1008.5
20260506105324 7 24 0.0 0.0 0.00 0.05 0.00 100 1008.5
20260506104850 7 24 0.0 0.0 0.00 0.05 0.00 100 1008.5
20260506104330 7 26 0.0 0.0 0.00 0.05 0.00 100 1007.6
20260506103837 7 25 0.0 0.0 0.00 0.05 0.00 100 1007.6
20260506103323 7 26 0.0 0.0 0.00 0.05 0.00 100 1007.6
20260506102828 7 25 0.0 0.0 0.00 0.05 0.00 100 1007.1
20260506102337 7 26 0.0 0.0 0.00 0.05 0.00 100 1007.1
20260506101819 7 26 0.0 0.0 0.00 0.05 0.00 100 1007.1
20260506101322 7 26 0.0 0.0 0.00 0.05 0.00 100 1006.8
20260506100826 7 26 0.0 0.0 0.00 0.05 0.00 100 1006.8
20260506100313 7 24 0.0 3.2 0.00 0.05 0.00 100 1006.8
20260506095824 7 24 0.0 4.8 0.00 0.05 0.00 100 1007.3
20260506095330 7 24 0.0 4.8 0.00 0.05 0.00 100 1007.3
20260506094820 7 22 0.0 0.0 0.00 0.05 0.00 100 1007.3
20260506094323 7 22 0.0 0.0 0.00 0.05 0.00 100 1007.4
20260506093828 7 22 0.0 0.0 0.00 0.05 0.00 100 1007.4
20260506093315 7 22 0.0 1.6 0.00 0.05 0.00 100 1007.4
20260506092841 7 22 0.0 6.4 0.00 0.05 0.00 100 1006.9
20260506092324 7 22 1.6 6.4 0.00 0.05 0.00 100 1006.9
20260506091830 7 30 0.0 6.4 0.00 0.05 0.00 100 1006.9
20260506091331 8 31 3.2 6.4 0.00 0.05 0.00 100 1007.3
20260506090856 8 26 1.6 6.4 0.00 0.05 0.00 100 1007.3
20260506090321 8 19 0.0 3.2 0.00 0.05 0.00 100 1007.3
20260506085828 8 22 0.0 0.0 0.00 0.05 0.00 100 1007.0
20260506085333 8 19 0.0 6.4 0.00 0.05 0.00 100 1007.0
20260506084819 8 19 0.0 8.0 0.00 0.05 0.00 100 1007.0
20260506084322 9 19 1.6 8.0 0.00 0.05 0.00 100 1006.9
20260506083847 9 28 0.0 0.0 0.00 0.05 0.00 100 1006.9
20260506083332 9 28 0.0 0.0 0.00 0.05 0.00 100 1006.9
20260506082836 9 29 0.0 0.0 0.00 0.05 0.00 100 1006.9
20260506082341 9 29 0.0 0.0 0.00 0.05 0.00 100 1006.9
20260506081847 9 29 0.0 0.0 0.00 0.05 0.00 100 1006.9
20260506081351 9 29 0.0 3.2 0.00 0.05 0.00 100 1006.5
20260506080855 9 30 0.0 3.2 0.00 0.05 0.00 100 1006.5
20260506080317 9 29 0.0 3.2 0.00 0.05 0.00 100 1006.5
20260506073332 10 29 0.0 0.0 0.00 0.05 0.00 100 1006.1
20260506072837 10 27 0.0 3.2 0.00 0.05 0.00 100 1006.2
20260506072322 10 28 0.0 3.2 0.00 0.05 0.00 100 1006.2
20260506071827 10 39 0.0 6.4 0.00 0.05 0.00 100 1006.2
20260506071329 10 40 1.6 6.4 0.00 0.05 0.00 100 1006.3
20260506070835 11 27 0.0 8.0 0.00 0.05 0.00 100 1006.3
20260506070321 11 28 1.6 8.0 0.00 0.05 0.00 100 1006.3
20260506062326 11 50 0.0 0.0 0.00 0.05 0.00 100 1006.0
20260506061829 11 50 0.0 0.0 0.00 0.05 0.00 100 1006.0
20260506061334 11 50 0.0 0.0 0.00 0.05 0.00 100 1006.2
20260506060817 11 50 0.0 0.0 0.00 0.05 0.00 100 1006.2
20260506060326 11 50 0.0 0.0 0.00 0.05 0.00 100 1006.2
20260506051319 12 51 0.0 0.0 0.00 0.05 0.00 100 1006.9
20260506050824 12 51 0.0 0.0 0.00 0.05 0.00 100 1006.9
20260506050319 12 51 0.0 1.6 0.00 0.05 0.00 100 1006.9
20260506044832 13 51 0.0 6.4 0.00 0.05 0.00 100 1007.0
20260506044355 14 196 0.0 0.0 0.00 0.05 0.00 100 1007.0
20260506043819 14 196 0.0 0.0 0.00 0.05 0.00 100 1007.0
20260506043325 14 196 0.0 0.0 0.00 0.05 0.00 100 1007.0
20260506042828 14 196 0.0 0.0 0.00 0.05 0.00 100 1007.0
20260506042332 14 223 0.0 0.0 0.00 0.05 0.00 100 1007.0
20260506041816 14 251 0.0 0.0 0.00 0.05 0.00 100 1007.0
20260506041320 14 250 0.0 4.8 0.00 0.05 0.00 100 1007.1
20260506040826 14 250 0.0 4.8 0.00 0.05 0.00 100 1007.1
20260506040328 14 120 0.0 4.8 0.00 0.05 0.00 100 1007.1
20260506035835 14 80 0.0 0.0 0.00 0.05 0.05 100 1007.6
20260506035324 14 168 0.0 1.6 0.00 0.05 0.05 100 1007.6
20260506034829 14 168 0.0 1.6 0.00 0.05 0.05 100 1007.6
20260506034331 14 86 0.0 1.6 0.00 0.05 0.05 100 1007.7
20260506033836 14 111 0.0 0.0 0.00 0.05 0.05 100 1007.7
20260506033319 14 146 0.0 0.0 0.00 0.05 0.05 100 1007.7
20260506032821 14 146 0.0 3.2 0.00 0.05 0.05 100 1007.8
20260506032326 14 153 0.0 3.2 0.00 0.05 0.05 100 1007.8
20260506031834 14 248 0.0 3.2 0.00 0.05 0.05 100 1007.8
20260506031319 14 141 0.0 6.4 0.00 0.05 0.05 100 1007.6
20260506030827 14 169 0.0 6.4 0.00 0.05 0.05 100 1007.6
20260506030334 14 173 1.6 8.0 0.00 0.05 0.05 100 1007.6
20260506025837 14 232 0.0 8.0 0.00 0.05 0.05 100 1007.9
20260506025322 14 148 0.0 6.4 0.00 0.05 0.05 100 1007.9
20260506024827 15 97 0.0 0.0 0.00 0.05 0.05 100 1007.9
20260506024330 15 103 0.0 0.0 0.00 0.05 0.05 100 1008.1
20260506023858 15 103 0.0 0.0 0.00 0.05 0.05 100 1008.1
20260506023320 15 202 0.0 4.8 0.00 0.05 0.05 100 1008.1
20260506022822 15 203 0.0 6.4 0.00 0.05 0.05 100 1008.1
20260506022327 15 85 1.6 6.4 0.00 0.05 0.05 100 1008.1
20260506021855 15 117 0.0 6.4 0.00 0.05 0.05 100 1008.1
20260506021314 15 99 0.0 3.2 0.00 0.05 0.05 100 1008.0
20260506020828 15 99 0.0 3.2 0.00 0.05 0.05 100 1008.0
20260506020334 15 99 0.0 3.2 0.00 0.05 0.05 100 1008.0
20260506015835 15 103 0.0 1.6 0.00 0.05 0.05 100 1007.8
20260506015344 15 103 0.0 1.6 0.00 0.05 0.05 100 1007.8
20260506014827 15 103 0.0 1.6 0.00 0.05 0.05 100 1007.8
20260506014329 15 103 0.0 0.0 0.00 0.05 0.05 100 1007.6
20260506013836 15 103 0.0 0.0 0.00 0.05 0.05 100 1007.6
20260506013320 15 103 0.0 0.0 0.00 0.05 0.05 100 1007.6
20260506012819 15 103 0.0 0.0 0.00 0.05 0.05 100 1007.6
20260506012324 15 105 0.0 0.0 0.00 0.05 0.05 100 1007.6
20260506011849 15 105 0.0 6.4 0.00 0.05 0.05 100 1007.6
20260506011331 15 129 0.0 6.4 0.00 0.05 0.05 100 1007.7
20260506010821 15 137 0.0 4.8 0.00 0.05 0.05 100 1007.7
20260506010326 15 137 0.0 8.0 0.00 0.05 0.05 100 1007.7
20260506005828 15 132 0.0 8.0 0.00 0.05 0.05 100 1007.8
20260506005332 15 118 0.0 4.8 0.00 0.05 0.05 100 1007.8
20260506004820 15 151 0.0 6.4 0.00 0.05 0.05 100 1007.8
20260506004325 15 154 0.0 6.4 0.00 0.05 0.05 100 1007.6
20260506003832 15 277 0.0 6.4 0.00 0.05 0.05 100 1007.6
20260506003315 15 131 0.0 4.8 0.00 0.05 0.05 100 1007.6
20260506002818 15 90 0.0 1.6 0.00 0.05 0.05 100 1007.7
20260506002344 15 90 0.0 0.0 0.00 0.05 0.05 100 1007.7
20260506001831 15 90 0.0 0.0 0.00 0.05 0.05 99 1007.7
20260506001333 15 90 0.0 0.0 0.00 0.05 0.05 99 1007.6
20260506000821 15 90 0.0 0.0 0.00 0.05 0.05 99 1007.6
20260506000326 15 96 0.0 0.0 0.00 0.05 0.05 99 1007.6
20260505235827 15 96 0.0 0.0 0.00 0.05 0.05 99 1007.7
20260505235335 15 97 0.0 0.0 0.00 0.05 0.05 99 1007.7
20260505234821 15 97 0.0 0.0 0.00 0.05 0.05 99 1007.7
20260505234326 15 97 0.0 1.6 0.00 0.05 0.05 99 1007.7
20260505233834 15 97 0.0 1.6 0.00 0.05 0.05 99 1007.7
20260505233319 15 98 0.0 3.2 0.00 0.05 0.05 99 1007.7
20260505232825 15 97 0.0 3.2 0.03 0.05 0.05 98 1008.1
20260505232331 15 99 0.0 1.6 0.03 0.05 0.05 98 1008.1
20260505231821 15 98 0.0 3.2 0.05 0.05 0.05 98 1008.1
20260505231323 15 103 0.0 3.2 0.05 0.05 0.05 97 1008.1
20260505230834 15 103 0.0 8.0 0.05 0.05 0.05 97 1008.1
20260505230319 15 103 0.0 8.0 0.05 0.05 0.05 96 1008.1
20260505225821 15 347 0.0 3.2 0.05 0.05 0.05 96 1008.2
20260505225327 15 102 1.6 4.8 0.05 0.05 0.05 95 1008.2
20260505224814 15 103 0.0 4.8 0.05 0.05 0.05 94 1008.2
20260505224324 16 72 0.0 9.7 0.05 0.05 0.05 93 1008.1
20260505223831 16 72 0.0 9.7 0.05 0.05 0.05 92 1008.1
20260505223319 16 69 0.0 11.3 0.03 0.03 0.03 90 1008.1
20260505222823 17 86 0.0 11.3 0.03 0.03 0.03 88 1008.0
20260505222332 17 106 1.6 11.3 0.03 0.03 0.03 85 1008.0
20260505221816 18 94 1.6 9.7 0.00 0.00 0.00 79 1008.0
20260505221340 20 161 1.6 14.5 0.00 0.00 0.00 71 1007.2
20260505220843 20 80 1.6 14.5 0.00 0.00 0.00 65 1007.2
20260505220334 20 175 3.2 12.9 0.00 0.00 0.00 62 1007.2
20260505215858 20 158 3.2 12.9 0.00 0.00 0.00 62 1007.1
20260505215323 20 200 1.6 11.3 0.00 0.00 0.00 62 1007.1
20260505214828 20 158 3.2 11.3 0.00 0.00 0.00 61 1007.1
20260505214351 20 272 1.6 14.5 0.00 0.00 0.00 61 1007.0
20260505213835 21 163 6.4 17.7 0.00 0.00 0.00 60 1007.0
20260505213321 21 217 6.4 17.7 0.00 0.00 0.00 61 1007.0
20260505212823 21 206 4.8 12.9 0.00 0.00 0.00 60 1007.0
20260505212331 21 258 4.8 11.3 0.00 0.00 0.00 61 1007.0
20260505211815 21 192 3.2 11.3 0.00 0.00 0.00 62 1007.0
20260505211339 20 259 3.2 12.9 0.00 0.00 0.00 64 1007.4
20260505210823 20 181 1.6 11.3 0.00 0.00 0.00 64 1007.4
20260505210335 20 88 0.0 16.1 0.00 0.00 0.00 64 1007.4
20260505205837 20 196 3.2 16.1 0.00 0.00 0.00 63 1007.5
20260505205321 20 132 1.6 11.3 0.00 0.00 0.00 63 1007.5
20260505204845 20 77 1.6 17.7 0.00 0.00 0.00 63 1007.5
20260505204329 20 223 0.0 17.7 0.00 0.00 0.00 63 1007.5
20260505203837 20 127 1.6 11.3 0.00 0.00 0.00 63 1007.5
20260505203322 20 165 1.6 11.3 0.00 0.00 0.00 63 1007.5
20260505202829 20 196 3.2 16.1 0.00 0.00 0.00 63 1007.6
20260505202337 20 178 0.0 19.3 0.00 0.00 0.00 63 1007.6
20260505201822 20 238 6.4 19.3 0.00 0.00 0.00 63 1007.6
20260505201345 20 181 3.2 11.3 0.00 0.00 0.00 64 1007.9
20260505200830 20 247 3.2 8.0 0.00 0.00 0.00 65 1007.9
20260505200316 20 128 0.0 9.7 0.00 0.00 0.00 65 1007.9
20260505195821 20 171 1.6 9.7 0.00 0.00 0.00 64 1008.1
20260505195325 20 285 0.0 9.7 0.00 0.00 0.00 65 1008.1
20260505194833 19 255 3.2 11.3 0.00 0.00 0.00 66 1008.1
20260505194316 19 150 4.8 11.3 0.00 0.00 0.00 64 1008.2
20260505193824 19 157 3.2 9.7 0.00 0.00 0.00 65 1008.2
20260505193329 19 163 1.6 6.4 0.00 0.00 0.00 65 1008.2
20260505192833 19 165 0.0 4.8 0.00 0.00 0.00 65 1008.3
20260505192341 19 147 0.0 8.0 0.00 0.00 0.00 66 1008.3
20260505191828 19 147 0.0 8.0 0.00 0.00 0.00 66 1008.3
20260505191334 19 184 0.0 8.0 0.00 0.00 0.00 67 1008.6
20260505190859 19 159 0.0 9.7 0.00 0.00 0.00 66 1008.6
20260505190323 19 194 3.2 9.7 0.00 0.00 0.00 66 1008.6
20260505185825 19 165 0.0 6.4 0.00 0.00 0.00 67 1008.6
20260505185330 19 204 1.6 6.4 0.00 0.00 0.00 68 1008.6
20260505184816 19 138 1.6 14.5 0.00 0.00 0.00 68 1008.6
20260505184317 18 223 0.0 14.5 0.00 0.00 0.00 68 1008.6
20260505183821 18 165 1.6 11.3 0.00 0.00 0.00 67 1008.6
20260505183328 18 232 3.2 11.3 0.00 0.00 0.00 68 1008.6
20260505182831 18 88 0.0 16.1 0.00 0.00 0.00 69 1008.6
20260505182321 18 161 0.0 16.1 0.00 0.00 0.00 71 1008.6
20260505181826 18 191 1.6 9.7 0.00 0.00 0.00 71 1008.6
20260505181332 18 175 0.0 9.7 0.00 0.00 0.00 73 1008.6
20260505180817 19 215 1.6 9.7 0.00 0.00 0.00 71 1008.6
20260505180328 20 161 1.6 16.1 0.00 0.00 0.00 65 1008.6
20260505175855 20 138 4.8 16.1 0.00 0.00 0.00 64 1008.6
20260505175321 20 142 4.8 16.1 0.00 0.00 0.00 62 1008.6
20260505174826 20 51 4.8 16.1 0.00 0.00 0.00 61 1008.6
20260505174331 21 63 4.8 17.7 0.00 0.00 0.00 61 1008.6
20260505173836 21 147 6.4 17.7 0.00 0.00 0.00 60 1008.6
20260505173321 21 77 6.4 16.1 0.00 0.00 0.00 59 1008.6
20260505172833 21 175 9.7 16.1 0.00 0.00 0.00 58 1008.6
20260505172317 21 155 3.2 12.9 0.00 0.00 0.00 59 1008.6
20260505171826 21 257 3.2 14.5 0.00 0.00 0.00 59 1008.6
20260505171328 21 147 3.2 20.9 0.00 0.00 0.00 59 1008.6
20260505170832 21 346 1.6 20.9 0.00 0.00 0.00 59 1008.6
20260505170336 21 219 4.8 14.5 0.00 0.00 0.00 58 1008.6
20260505165818 21 78 4.8 14.5 0.00 0.00 0.00 58 1008.6
20260505165324 21 273 4.8 16.1 0.00 0.00 0.00 57 1008.6
20260505164830 21 139 4.8 16.1 0.00 0.00 0.00 57 1008.6
20260505164356 21 150 6.4 16.1 0.00 0.00 0.00 59 1008.8
20260505163820 21 186 3.2 12.9 0.00 0.00 0.00 60 1008.8
20260505163351 21 13 3.2 9.7 0.00 0.00 0.00 59 1008.8
20260505162831 21 232 3.2 19.3 0.00 0.00 0.00 59 1009.2
20260505162356 20 117 1.6 19.3 0.00 0.00 0.00 63 1009.2
20260505161825 20 189 6.4 17.7 0.00 0.00 0.00 60 1009.2
20260505161328 20 159 4.8 17.7 0.00 0.00 0.00 62 1009.2
20260505160853 20 160 4.8 17.7 0.00 0.00 0.00 62 1009.2
20260505160335 20 131 4.8 16.1 0.00 0.00 0.00 62 1009.2
20260505153319 19 175 4.8 17.7 0.00 0.00 0.00 65 1008.7
20260505152823 18 162 1.6 17.7 0.00 0.00 0.00 67 1008.6
20260505152351 18 216 4.8 17.7 0.00 0.00 0.00 67 1008.6
20260505151835 18 211 0.0 11.3 0.00 0.00 0.00 69 1008.6
20260505151338 18 132 0.0 16.1 0.00 0.00 0.00 69 1008.6